Weather in Vordingborg

Denmark     55°00′29″N   11°54′43″E
temp.,
°C
wind,
m/s
gust,
m/s
humid.,
%
clouds,
%
prec.,
mm/h
press.,
hPa
HPBL,
m
25 june, sat
sat2523:00+19se513735 0.0 1007252
02:00+18w338175 0.0 100833
05:00+17wnw229343 0.9 100936
08:00+20wsw1183100 0.9 1011124
11:00+22s017497 0.1 1011493
14:00+23ese236899 0.5 1012710
17:00+22se4679100 1.0 1012444
20:00+21sse358337 1.1 1012259
26 june, sun
sun2623:00+18s229456 1.0 101421
02:00+18ese129399 2.0 101311
05:00+17ese229599 0.1 101430
08:00+20se238593 0.1 1014149
11:00+23se3370100 0.0 1014364
14:00+23se3376100 0.9 1015232
17:00+22e3382100 1.1 1015199
20:00+21wsw458979 1.8 1016185
27 june, mon
mon2723:00+18nw229460 0.0 101732
02:00+17n359587 0.0 101692
05:00+16n339578 0.0 101754
08:00+20ne3587100 0.0 1016220
11:00+22ene567223 0.0 1016360
14:00+23e557599 0.1 1014308
17:00+24ene337295 0.0 1013235
20:00+20ne359356 3.6 101298
28 june, tue
tue2823:00+19sw91497100 4.9 1015572
02:00+16nnw3696100 6.9 1015198
05:00+16wnw5794100 0.0 1016397
08:00+15wnw7992100 0.2 1019640
11:00+17wnw787677 0.1 1021940
14:00+19w66671 0.1 1022819
17:00+20w45630 0.0 1022657
20:00+19wnw34690 0.0 1023138
29 june, wed
wed2923:00+15wnw227862 0.0 102321
02:00+14nne117997 0.0 102422
05:00+14nne017741 0.0 102422
08:00+18ne006559 0.0 1024162
11:00+20ene1157100 0.0 1024792
14:00+21e3256100 0.0 1023967
17:00+20e3359100 0.0 1022461
20:00+18ese237299 0.0 102066